Overview Statistics Trail Chart Weather Telemetry Raw packets
 

This is the latest recevied weather packets stored in our database for station/object KK4MOR. If no packets are shown the sender has not sent any weather packets the latest 10 day(s).

<< 1 2 3 4 >>
Time Temp. Humidity Pressure Rain* Wind** Luminosity Snow
1788617749 26.67° C 87% 1012 hPa 0 mm - - -
1788616848 26.11° C 93% 1012 hPa 0 mm - - -
1788615947 25.56° C 95% 1011.9 hPa 0 mm - - -
1788615041 25° C 97% 1012.1 hPa 0 mm - - -
1788614138 24.44° C 98% 1012.2 hPa 0 mm - - -
1788613234 23.89° C 98% 1012.2 hPa 0 mm - - -
1788612331 23.33° C 98% 1012.2 hPa 0 mm - - -
1788611429 22.22° C 98% 1012.1 hPa 0 mm - - -
1788610528 22.22° C 98% 1012.1 hPa 0 mm - - -
1788609638 21.67° C 98% 1012 hPa 0 mm - - -
1788608725 21.67° C 97% 1011.7 hPa 0 mm - - -
1788607824 21.67° C 97% 1011.8 hPa 0 mm - - -
1788606937 21.67° C 97% 1011.6 hPa 0 mm - - -
1788606023 21.67° C 97% 1011.3 hPa 0 mm - - -
1788605119 21.67° C 97% 1011.1 hPa 0 mm - - -
1788604226 21.67° C 97% 1011 hPa 0 mm - - -
1788603318 21.67° C 96% 1010.9 hPa 0 mm - - -
1788602416 22.22° C 97% 1011 hPa 0 mm - - -
1788601516 21.67° C 97% 1010.8 hPa 0 mm - - -
1788600615 21.67° C 97% 1010.8 hPa 0 mm - - -
1788599714 21.67° C 97% 1010.6 hPa 0 mm - - -
1788598813 21.67° C 97% 1010.6 hPa 0 mm - - -
1788597912 21.67° C 97% 1010.6 hPa 0 mm - - -
1788597072 21.67° C 96% 1010.8 hPa 0 mm - - -
1788596109 22.22° C 96% 1010.8 hPa 0 mm - - -

* Rain latest hour (hover to see other rain measurements)
** Current wind speed in m/s (hover to see current wind gust speed)